EW7285 Weather Reports


Display with metric or nautical units.
time (UTC)temp
F
wind
direction
speed
MPH
gust
MPH
rain 1hr
in
rain 24hr
in
rain mn
in
humidity
%
barometer
mb
20260507070059 47 144 4.0 10.0 0.00 0.00 0.00 47 1014.2
20260507064555 46 131 4.0 9.0 0.00 0.00 0.00 52 1014.2
20260507063055 45 150 5.0 9.0 0.00 0.00 0.00 53 1014.2
20260507061555 44 70 4.0 8.0 0.00 0.00 0.00 57 1014.2
20260507060044 43 119 3.0 9.0 0.00 0.00 0.00 65 1014.1
20260507054540 43 153 2.0 7.0 0.00 0.00 0.00 69 1014.0
20260507053105 41 118 3.0 8.0 0.00 0.00 0.00 74 1014.0
20260507051541 40 119 4.0 7.0 0.00 0.00 0.00 79 1013.9
20260507050035 38 95 0.0 0.0 0.00 0.00 0.00 90 1013.8
20260507044529 34 95 0.0 2.0 0.00 0.00 0.00 90 1013.6
20260507043025 33 95 0.0 0.0 0.00 0.00 0.00 90 1013.6
20260507041524 31 95 0.0 0.0 0.00 0.00 0.00 91 1013.6
20260507040024 29 95 0.0 0.0 0.00 0.00 0.00 92 1013.7
20260507034532 28 95 0.0 1.0 0.00 0.00 0.00 91 1013.7
20260507033032 27 95 0.0 0.0 0.00 0.00 0.00 91 1013.6
20260507031515 26 95 0.0 0.0 0.00 0.00 0.00 91 1013.4
20260507030013 26 95 0.0 0.0 0.00 0.00 0.00 91 1013.4
20260507024512 26 95 0.0 0.0 0.00 0.00 0.00 90 1013.4
20260507023019 27 95 0.0 0.0 0.00 0.00 0.00 90 1013.4
20260507021507 27 95 0.0 0.0 0.00 0.00 0.00 90 1013.4
20260507020007 27 95 0.0 0.0 0.00 0.00 0.00 90 1013.4
20260507014507 27 95 0.0 0.0 0.00 0.00 0.00 89 1013.4
20260507013000 28 95 0.0 0.0 0.00 0.00 0.00 89 1013.3
20260507011603 28 95 0.0 0.0 0.00 0.00 0.00 89 1013.3
20260507010104 29 95 0.0 0.0 0.00 0.00 0.00 89 1013.3
20260507004606 29 95 0.0 0.0 0.00 0.00 0.00 88 1013.2
20260507003054 30 95 0.0 2.0 0.00 0.00 0.00 88 1013.1
20260507001552 30 95 0.0 0.0 0.00 0.00 0.00 87 1013.0
20260507000047 30 95 0.0 2.0 0.00 0.00 0.00 86 1013.0
20260506234545 30 95 0.0 4.0 0.00 0.00 0.00 86 1012.9
20260506233042 30 95 1.0 2.0 0.00 0.00 0.00 86 1012.7
20260506231539 30 95 0.0 0.0 0.00 0.00 0.00 84 1012.6
20260506230037 31 95 0.0 0.0 0.00 0.00 0.00 82 1012.7
20260506224533 33 95 0.0 0.0 0.00 0.00 0.00 81 1012.7
20260506223029 33 95 0.0 0.0 0.00 0.00 0.00 80 1012.7
20260506221525 34 95 0.0 0.0 0.00 0.00 0.00 77 1012.7
20260506220031 35 95 0.0 0.0 0.00 0.00 0.00 73 1012.5
20260506214621 37 95 0.0 0.0 0.00 0.00 0.00 73 1012.5
20260506213025 37 95 1.0 3.0 0.00 0.00 0.00 70 1012.5
20260506211520 39 95 0.0 3.0 0.00 0.00 0.00 69 1012.4
20260506210021 40 107 0.0 4.0 0.00 0.00 0.00 67 1012.3
20260506204518 40 128 0.0 4.0 0.00 0.00 0.00 66 1012.2
20260506203021 41 121 1.0 4.0 0.00 0.00 0.00 65 1012.3
20260506201517 41 137 2.0 6.0 0.00 0.00 0.00 63 1012.3
20260506200020 41 119 2.0 6.0 0.00 0.00 0.00 62 1012.3
20260506194516 41 148 0.0 4.0 0.00 0.00 0.00 60 1012.3
20260506193015 42 76 1.0 6.0 0.00 0.00 0.00 58 1012.3
20260506191514 43 132 1.0 5.0 0.00 0.00 0.00 56 1012.3
20260506190022 44 114 2.0 7.0 0.00 0.00 0.00 54 1012.3
20260506184517 44 142 0.0 6.0 0.00 0.00 0.00 51 1012.2
20260506183013 45 86 1.0 9.0 0.00 0.00 0.00 49 1012.2
20260506181515 46 94 0.0 10.0 0.00 0.00 0.00 47 1012.0
20260506180011 46 146 4.0 8.0 0.00 0.00 0.00 46 1012.0
20260506174510 47 162 4.0 12.0 0.00 0.00 0.00 43 1011.9
20260506173009 48 101 3.0 10.0 0.00 0.00 0.00 35 1011.8
20260506171507 49 107 1.0 10.0 0.00 0.00 0.00 38 1011.8
20260506170006 49 167 5.0 17.0 0.00 0.00 0.00 40 1011.7
20260506164505 49 136 9.0 16.0 0.00 0.00 0.00 41 1011.5
20260506163008 50 180 6.0 14.0 0.00 0.00 0.00 39 1011.4
20260506161502 50 137 9.0 16.0 0.00 0.00 0.00 38 1011.4
20260506160005 51 151 5.0 14.0 0.00 0.00 0.00 38 1011.2
20260506154504 51 135 10.0 18.0 0.00 0.00 0.00 37 1011.2
20260506153002 51 132 11.0 17.0 0.00 0.00 0.00 37 1011.3
20260506151600 51 134 8.0 18.0 0.00 0.00 0.00 36 1011.3
20260506150100 52 142 9.0 19.0 0.00 0.00 0.00 37 1011.3
20260506144607 52 132 9.0 16.0 0.00 0.00 0.00 37 1011.3
20260506143059 53 215 6.0 8.0 0.00 0.00 0.00 29 1011.5
20260506141559 53 313 5.0 12.0 0.00 0.00 0.00 27 1011.4
20260506140056 53 275 8.0 11.0 0.00 0.00 0.00 26 1011.5
20260506134600 53 66 0.0 10.0 0.00 0.00 0.00 25 1011.5
20260506133058 53 180 3.0 9.0 0.00 0.00 0.00 26 1011.6
20260506131553 53 189 9.0 13.0 0.00 0.00 0.00 23 1011.7
20260506130052 52 134 7.0 11.0 0.00 0.00 0.00 22 1011.7
20260506124550 52 178 3.0 13.0 0.00 0.00 0.00 22 1011.7
20260506123050 52 134 4.0 11.0 0.00 0.00 0.00 22 1011.8
20260506121548 52 117 7.0 15.0 0.00 0.00 0.00 24 1011.9
20260506120048 52 166 5.0 14.0 0.00 0.00 0.00 23 1011.9
20260506114546 52 55 3.0 10.0 0.00 0.00 0.00 26 1012.0
20260506113045 51 315 5.0 11.0 0.00 0.00 0.00 27 1012.2
20260506111543 52 116 4.0 9.0 0.00 0.00 0.00 28 1012.3
20260506110045 51 186 4.0 7.0 0.00 0.00 0.00 29 1012.3
20260506104547 51 259 2.0 9.0 0.00 0.00 0.00 31 1012.3
20260506103041 50 252 7.0 11.0 0.00 0.00 0.00 28 1012.4
20260506101540 50 94 4.0 13.0 0.00 0.00 0.00 26 1012.5
20260506100037 50 173 5.0 11.0 0.00 0.00 0.00 26 1012.8
20260506094535 50 260 4.0 10.0 0.00 0.00 0.00 30 1012.8
20260506093038 50 328 2.0 11.0 0.00 0.00 0.00 31 1012.7
20260506091532 50 259 3.0 10.0 0.00 0.00 0.00 33 1012.7
20260506090029 49 225 3.0 9.0 0.00 0.00 0.00 33 1012.7
20260506084534 48 273 2.0 9.0 0.00 0.00 0.00 32 1012.7
20260506083025 48 334 4.0 8.0 0.00 0.00 0.00 34 1012.7
20260506081522 48 341 3.0 8.0 0.00 0.00 0.00 35 1012.6
20260506073016 46 324 1.0 8.0 0.00 0.00 0.00 47 1012.6
20260506071515 45 310 3.0 8.0 0.00 0.00 0.00 45 1012.6